Location: Dalton
(34.7700°N, 84.9700°W)
Time: 22:18:32
(UTC-05:00)

Envisat - Pass Details

Date: 08 October 2017
Orbit: 764 x 766 km, 98.2° (Epoch: 12 December)

Event Time Altitude Azimuth Distance (km) Brightness Sun altitude
Exits shadow 20:41:30 23° 50° (NE) 1,574 4.2 -18.8°
Drops below altitude 10° 20:44:33 10° 15° (NNE) 2,309 5.4 -19.4°
Sets 20:47:12 0° 3° (N) 3,239 6.3 -20.0°
